Theta_e
352 343 336 338 338 338 334 334 332 332 336 343 345 344 346 345 345 345 345 343 341 340 340 339 340 338 336 338 339 340 342 343 341 338 335 333 331 329 323 316 314 316 319 325 330 330 330 330 329 329 329 329 329 329 328 328 329 329 329 329 330 332 332 333 334 335 334 333 333 332 331 332 333 333 333 334 335 336 336 335 334 334 335 335 334
352 342 336 339 338 337 335 334 333 332 335 341 344 343 345 344 344 344 344 343 341 341 341 341 342 340 336 337 337 338 341 342 342 341 336 334 335 333 325 316 315 317 322 327 330 331 331 330 330 330 330 330 329 329 328 328 329 329 329 330 332 334 335 335 335 335 334 332 332 330 329 329 330 331 332 332 333 334 335 335 335 334 335 335 335
351 343 339 340 338 337 335 334 333 333 335 341 342 343 344 343 344 344 344 343 343 342 343 343 343 342 337 335 335 334 337 340 341 342 340 336 337 336 326 317 315 317 325 329 330 331 331 332 332 332 331 330 330 330 329 329 329 329 329 330 333 335 335 336 336 336 337 336 335 334 332 333 334 334 334 334 335 336 336 336 336 335 334 335 335
350 345 341 341 339 337 335 334 333 333 335 340 342 342 343 343 343 344 344 344 344 344 344 344 343 342 336 332 331 328 330 337 341 342 342 338 336 336 327 316 316 319 327 330 331 332 332 332 331 332 332 331 331 331 330 329 329 329 329 330 333 335 335 335 336 337 337 337 338 338 335 335 337 336 336 336 336 337 336 336 336 336 335 334 335
350 346 341 341 339 337 335 334 333 334 335 338 341 342 342 342 343 344 344 343 344 344 344 344 343 340 335 331 330 329 329 334 340 342 343 340 335 336 328 316 319 326 330 330 331 333 332 332 331 331 331 332 332 331 331 330 330 329 329 329 332 335 336 336 337 338 338 337 338 339 337 336 337 337 337 336 336 336 337 337 337 337 336 335 335
350 346 341 341 340 337 336 334 333 335 336 338 341 342 341 342 343 342 342 342 343 343 343 343 342 337 336 335 335 336 334 333 338 342 343 341 337 338 333 323 327 333 332 331 332 333 332 332 331 331 331 331 331 331 331 331 330 330 330 329 332 335 336 337 338 339 339 339 339 339 337 338 338 338 338 338 337 336 336 336 337 337 337 336 334
348 344 343 344 342 338 337 334 334 336 337 337 339 341 341 342 341 339 341 341 340 342 341 341 339 336 338 337 336 338 337 334 337 341 342 341 338 340 338 334 337 338 335 331 332 333 332 332 331 331 331 331 330 330 331 332 331 330 330 329 332 337 338 337 339 339 339 339 340 339 337 338 338 338 338 338 339 338 336 335 335 335 336 336 335
348 346 346 347 343 339 337 335 335 336 337 337 338 340 340 339 337 335 338 337 338 342 341 338 335 335 339 338 336 338 339 336 337 340 341 340 338 340 340 338 340 341 340 334 332 333 332 332 332 331 331 331 330 329 329 331 332 331 331 330 332 336 338 338 339 339 340 339 338 338 337 337 337 338 338 338 338 338 338 336 335 334 335 335 335
348 348 348 347 343 339 337 336 336 337 338 338 338 339 338 335 333 331 332 333 337 340 341 338 336 336 338 338 336 337 340 338 338 339 339 340 339 340 339 338 340 341 341 336 332 333 332 332 332 331 331 331 330 329 329 330 332 331 331 331 331 335 338 339 338 338 340 339 337 337 337 338 337 337 337 337 337 337 338 337 336 335 335 335 334
348 348 348 347 342 339 338 336 338 340 339 338 339 339 337 333 330 330 329 330 333 338 339 339 339 339 339 339 338 337 339 340 338 337 339 341 340 339 339 339 340 340 340 338 334 332 332 331 331 331 331 330 330 329 328 330 331 331 331 331 332 335 338 338 338 339 340 338 337 338 338 337 336 337 337 337 336 336 336 335 335 335 335 335 334
349 348 349 347 341 339 339 337 339 341 339 338 340 339 337 334 331 331 330 328 328 334 339 338 339 339 339 340 338 337 338 339 338 337 340 341 340 339 339 339 339 338 340 339 335 332 332 331 331 330 330 330 329 328 328 329 331 331 331 332 332 336 337 337 340 340 337 337 338 338 339 336 335 337 337 337 337 336 336 335 335 334 334 334 333
349 350 350 346 340 340 339 338 340 341 339 336 337 336 336 334 332 331 329 327 322 328 336 338 338 337 338 339 338 338 339 339 337 337 340 340 340 339 338 339 339 338 339 337 334 332 331 331 331 330 330 329 328 327 327 330 331 331 331 332 334 335 336 338 340 338 335 337 337 338 339 336 335 337 337 337 337 336 336 335 335 334 333 333 333
351 351 351 345 340 341 340 338 340 341 337 332 333 333 334 334 332 331 328 325 319 323 334 337 338 337 338 339 338 339 339 338 337 338 340 340 340 339 338 339 339 338 339 336 332 332 330 330 330 329 329 328 327 326 327 330 330 331 332 333 334 335 337 340 340 335 335 336 337 338 338 336 336 337 337 336 336 336 335 334 334 334 333 332 332
351 350 349 345 342 342 340 338 340 341 334 329 331 332 334 333 332 331 327 325 321 324 333 335 337 338 337 338 339 340 340 339 337 338 339 340 340 338 337 337 338 338 338 333 330 331 330 330 329 328 328 326 325 324 326 330 331 332 332 333 334 335 337 340 337 334 335 335 336 339 336 335 336 337 337 337 336 335 335 334 333 333 332 332 331
351 350 347 345 343 341 340 339 341 342 335 328 330 332 333 333 333 330 327 326 326 329 334 335 337 338 337 339 339 340 340 339 338 338 340 340 339 338 337 336 336 337 336 330 329 330 328 329 328 327 326 324 323 322 327 330 331 332 332 334 334 334 336 338 336 334 336 336 338 338 334 335 337 337 337 336 336 335 334 333 332 332 331 331 331
351 350 348 346 344 342 340 340 342 343 336 327 329 332 333 334 333 330 328 328 327 332 337 336 337 337 337 338 338 338 340 340 338 338 340 339 339 338 337 335 334 336 334 329 328 329 327 328 327 326 325 323 320 320 327 330 331 332 332 334 334 335 336 337 336 335 337 337 338 338 336 335 337 337 336 336 335 335 334 333 332 331 331 331 329
349 348 347 346 345 343 342 342 342 343 338 329 329 332 333 334 333 331 329 329 328 331 336 337 336 337 337 337 337 338 340 340 338 338 338 338 339 338 336 335 333 334 334 329 328 328 327 327 325 325 324 322 319 319 327 330 331 332 332 333 334 335 336 337 337 336 337 338 338 339 337 336 337 337 336 336 335 335 334 333 332 331 331 330 327
348 347 346 345 345 344 343 343 342 343 339 333 331 332 333 334 334 333 332 329 328 330 335 337 338 337 337 336 336 338 339 339 338 337 337 336 337 337 336 334 332 333 333 329 328 328 327 327 325 325 323 321 318 319 326 330 331 332 332 333 333 335 337 337 338 338 338 339 338 337 336 337 337 337 336 335 335 335 334 333 332 332 330 327 324
347 346 345 344 345 344 344 343 342 344 341 337 335 335 335 335 335 335 335 331 329 329 332 335 337 337 336 336 337 338 339 339 339 337 336 335 335 335 334 333 331 332 332 329 328 328 327 326 325 325 323 321 319 319 325 330 331 332 332 333 334 337 337 336 338 339 339 339 338 335 336 337 337 336 336 335 335 334 334 333 332 332 328 323 319
347 346 345 344 345 344 344 343 343 345 342 340 339 338 337 337 337 337 338 334 330 329 329 333 336 337 337 338 338 338 339 339 338 338 337 335 334 334 333 331 330 330 331 329 328 328 327 327 326 325 323 321 319 319 324 330 331 332 333 334 335 337 336 335 339 339 339 339 336 335 336 337 336 336 336 335 335 333 333 332 331 330 323 315 312
346 345 345 345 345 343 343 343 344 345 343 342 341 341 340 339 340 339 340 337 334 331 329 331 336 338 338 338 338 338 340 340 339 339 338 336 336 335 334 331 328 329 329 329 329 328 328 327 326 325 323 321 319 319 324 330 331 332 334 334 336 337 335 336 338 338 339 338 335 335 336 336 336 336 336 335 334 333 332 331 330 326 315 307 304
346 345 345 344 345 343 343 342 343 345 343 343 342 341 341 341 340 339 340 339 337 334 332 332 334 337 338 338 339 340 341 340 340 340 339 338 338 336 335 331 328 328 328 329 329 328 328 327 326 325 323 322 320 320 323 327 331 332 334 335 337 337 335 336 338 338 338 337 335 335 336 336 336 336 336 335 334 333 331 330 328 319 307 301 300
347 346 345 344 344 343 344 342 342 345 345 344 344 342 341 342 341 340 340 340 339 337 335 335 335 336 336 337 338 339 340 340 340 340 340 339 339 337 336 333 329 327 327 328 329 328 328 327 327 325 324 322 320 326 330 329 330 333 334 336 337 337 335 337 338 338 338 336 335 335 335 335 335 335 335 335 334 332 331 329 323 310 301 300 301
346 346 345 344 343 343 344 343 343 344 346 346 345 344 341 342 343 341 341 342 340 339 338 338 336 335 335 335 336 337 338 338 338 339 340 340 340 338 336 335 333 330 327 327 328 328 328 327 326 325 324 322 320 330 338 334 333 334 334 336 337 336 336 338 338 338 338 335 334 334 334 335 335 335 335 334 332 331 330 325 313 302 300 303 306
346 346 345 344 343 344 344 344 343 344 346 347 347 345 342 343 343 342 342 342 340 341 341 338 336 334 334 334 334 335 335 337 337 336 339 341 340 339 337 336 335 334 330 326 327 328 327 327 327 325 324 323 320 329 336 335 337 336 334 336 336 335 336 339 339 338 338 334 333 333 334 334 334 334 334 333 331 329 326 316 305 300 301 305 308
346 346 345 344 343 344 345 345 345 343 345 347 347 345 342 343 344 344 343 342 341 342 341 339 336 335 334 331 332 334 334 337 336 332 337 340 339 339 338 337 336 336 333 327 329 331 328 327 328 326 323 321 322 327 331 333 335 336 335 335 336 335 336 339 338 337 336 333 333 333 333 334 334 334 333 331 330 326 319 309 302 302 303 306 308
345 346 345 345 344 344 344 345 345 344 344 346 348 346 343 344 345 345 344 343 343 343 342 340 337 335 335 331 332 333 333 336 335 331 336 338 338 339 338 338 336 335 334 328 331 335 331 327 328 329 325 322 325 327 329 331 331 334 334 334 335 336 336 337 337 336 335 333 333 333 333 333 333 332 331 330 327 321 313 306 304 306 308 309 307
345 345 345 345 344 343 344 346 346 346 346 347 348 347 344 344 345 345 345 344 344 344 342 340 337 336 336 333 334 334 332 336 335 332 335 336 338 339 337 337 335 335 335 330 330 336 334 329 327 330 330 327 329 328 328 330 329 332 333 334 335 335 335 335 336 336 335 334 333 333 333 332 332 331 330 328 324 317 313 310 312 315 316 314 310
346 346 345 345 345 344 344 346 347 346 346 346 347 347 345 344 345 345 345 344 344 344 341 339 337 336 336 334 335 335 334 335 336 334 334 336 338 338 337 335 335 335 337 334 331 334 336 332 329 329 332 331 329 329 329 330 330 332 333 335 335 334 334 334 335 336 335 334 333 331 331 330 330 329 328 326 321 318 318 319 319 319 317 315 312
347 347 346 345 345 344 343 346 347 346 345 345 346 346 344 345 345 345 345 344 344 343 341 339 335 334 336 335 335 335 335 335 337 335 334 336 337 337 337 335 336 336 337 336 331 334 337 334 331 330 331 331 329 329 329 330 332 332 333 335 334 334 334 333 334 335 334 334 332 329 327 326 325 324 324 323 321 320 322 322 322 319 316 314 312
349 347 347 346 346 345 344 346 346 345 345 345 345 345 344 344 344 344 345 344 344 343 339 338 335 335 336 336 335 335 335 337 338 336 334 336 336 336 337 336 337 337 337 336 332 334 336 334 333 331 332 330 327 329 331 333 333 333 334 336 335 334 334 333 333 334 333 332 330 326 325 323 321 320 319 320 322 322 322 322 321 319 316 314 312
348 348 348 346 345 345 344 345 346 345 345 344 344 344 344 344 344 344 344 344 344 343 339 337 335 336 336 336 336 336 336 338 338 337 335 337 337 337 338 338 338 337 338 337 334 336 335 334 333 331 331 329 329 332 332 333 333 334 336 337 336 335 334 333 333 333 332 331 329 327 325 322 321 319 316 318 322 322 321 321 320 319 317 316 314
345 348 347 346 345 345 344 345 345 344 345 344 343 343 343 344 344 344 344 344 343 342 338 337 336 336 337 336 336 337 337 339 339 338 338 338 338 338 338 339 338 337 339 336 335 337 336 335 333 332 331 329 334 335 333 334 334 335 336 336 336 336 335 333 332 332 332 330 329 328 326 324 321 315 311 316 322 322 321 321 320 320 319 319 318
344 349 347 347 346 345 344 345 344 344 344 344 343 343 342 343 344 344 344 343 343 341 338 337 337 336 337 337 337 338 338 339 339 339 339 339 339 339 338 339 338 338 337 335 335 337 336 335 334 333 333 333 336 337 335 336 336 336 336 336 335 335 335 333 332 331 331 330 329 328 326 325 320 314 310 311 318 322 321 321 321 321 320 319 319
345 349 348 347 346 345 345 345 344 344 344 344 343 342 342 342 343 343 343 343 342 341 337 337 338 337 337 337 337 338 338 339 339 339 339 339 339 338 337 337 337 336 334 334 337 336 334 334 335 334 334 335 335 336 337 337 337 336 335 335 335 333 333 333 332 331 330 330 330 329 327 326 322 320 318 312 313 318 320 321 320 318 318 318 318
347 350 349 347 346 345 345 346 344 344 344 344 343 342 342 341 342 342 342 342 342 340 337 338 338 336 337 337 338 338 336 338 340 339 339 338 337 337 336 335 335 335 333 334 336 335 334 333 335 334 334 336 336 336 338 337 337 336 335 335 333 333 332 332 332 331 330 329 329 328 326 326 324 323 322 318 316 316 319 320 317 315 317 318 318
350 350 349 347 347 345 345 346 344 343 343 344 342 341 341 341 341 341 342 342 341 340 337 338 337 335 337 338 338 337 334 337 340 338 338 338 337 335 336 335 335 335 334 335 335 335 337 336 336 336 334 338 338 336 337 337 337 335 334 334 332 332 332 332 332 330 328 326 326 326 324 323 323 323 322 321 320 316 316 316 315 315 316 317 317
352 351 350 347 347 345 345 345 344 343 343 344 342 341 342 341 341 341 342 342 341 340 337 337 337 335 337 338 338 336 332 336 339 337 337 340 339 337 338 338 338 338 337 339 338 338 341 339 337 338 337 339 338 336 337 337 337 336 334 333 332 332 332 331 332 330 328 325 324 324 323 322 322 322 322 322 321 319 316 313 313 314 311 310 312
353 352 350 348 347 346 345 345 344 343 343 344 342 342 342 341 341 341 342 342 340 340 338 338 337 334 337 337 337 335 333 337 338 337 339 342 342 341 341 342 342 342 340 341 342 341 342 339 337 339 338 339 337 336 337 337 336 336 334 333 333 332 332 332 332 330 327 325 324 322 322 321 318 317 320 322 321 320 318 312 308 307 305 303 305
354 352 350 349 347 346 345 344 344 343 342 343 343 342 342 341 341 340 341 342 340 340 338 338 337 334 336 337 337 336 335 339 339 339 341 342 343 343 342 344 344 343 342 343 342 342 342 340 339 340 339 338 336 336 337 337 336 335 334 333 333 333 332 332 331 330 327 324 323 322 321 319 316 314 317 321 321 320 319 315 308 307 307 303 300
354 353 351 349 348 346 345 344 343 343 342 343 343 342 341 341 340 340 341 341 340 340 339 339 337 334 336 337 338 337 335 339 340 340 341 342 343 343 343 345 344 342 343 343 343 342 342 341 338 339 339 337 336 336 337 337 335 334 334 333 332 332 332 332 332 331 327 324 323 322 321 318 316 315 315 316 320 320 319 318 313 312 313 308 304
354 353 351 349 348 346 346 345 343 344 343 342 343 342 341 341 340 340 341 341 340 339 339 340 337 334 335 337 338 339 337 339 340 340 340 342 342 342 343 345 344 342 343 343 343 343 342 341 337 336 338 337 336 336 336 336 335 334 333 333 332 331 331 331 332 331 328 325 323 322 321 318 316 315 313 313 316 318 318 317 315 314 313 311 309
354 353 352 350 348 347 346 346 344 345 344 342 343 343 342 341 340 339 340 341 340 339 339 340 338 333 333 337 339 339 339 339 340 339 340 341 342 343 342 343 343 343 343 343 343 343 343 342 338 336 337 336 336 336 336 335 334 334 333 333 332 332 332 331 331 331 330 326 323 323 321 319 317 315 313 313 313 314 314 314 314 314 313 312 310
355 353 353 351 349 347 347 346 345 345 345 344 344 343 343 341 340 339 339 340 339 339 339 339 339 334 332 336 340 340 340 339 339 339 340 341 342 343 342 342 343 343 343 343 344 343 342 341 340 338 337 336 336 336 336 335 334 333 333 334 333 333 333 332 331 332 330 328 325 323 322 320 319 316 314 313 311 311 311 311 312 312 312 311 310
355 354 353 352 350 348 347 346 346 346 345 345 344 344 343 342 341 340 339 339 340 339 340 340 339 335 331 334 339 340 340 339 339 339 339 341 342 343 343 342 342 343 343 343 343 343 342 340 339 339 338 336 335 335 336 336 335 334 334 335 335 335 336 333 332 332 330 328 326 324 323 321 320 316 314 313 311 311 310 311 311 311 311 310 309
355 354 352 352 351 349 347 347 346 346 346 345 345 344 344 343 343 342 340 341 341 341 340 342 341 337 333 333 337 340 340 339 339 339 338 340 342 343 343 342 342 343 343 342 342 343 343 341 340 340 339 337 334 334 335 336 336 335 333 334 335 336 337 333 333 333 330 328 328 325 323 322 320 317 314 314 313 312 311 311 311 310 311 309 308
355 353 352 352 351 350 348 347 347 347 347 346 345 344 344 344 343 342 341 341 342 342 341 341 341 339 336 334 337 340 340 339 339 339 339 339 341 343 343 343 343 344 343 342 342 343 344 342 341 340 340 338 335 334 335 336 336 336 334 334 334 334 334 332 333 334 332 330 328 326 324 322 321 319 316 315 314 313 311 311 311 310 311 310 308
354 353 353 353 352 351 349 348 348 347 347 346 345 344 344 344 343 342 341 341 342 343 341 341 342 341 339 337 338 339 340 339 339 339 339 339 340 342 342 342 343 343 343 342 342 343 344 343 341 341 340 339 337 335 336 336 336 336 336 335 335 335 334 332 333 333 334 333 329 326 325 322 321 320 318 316 315 314 312 311 311 311 311 311 309
353 352 352 353 352 351 350 349 349 347 348 347 345 345 345 344 343 342 342 342 342 343 342 342 343 342 341 339 338 338 339 339 338 338 339 339 339 341 342 342 343 343 342 341 341 342 344 343 341 341 340 339 337 337 336 336 336 336 336 335 335 335 334 333 332 331 333 335 332 328 325 323 322 321 319 318 317 315 313 312 312 311 312 312 311
353 351 351 352 351 351 350 350 349 348 348 347 346 346 346 345 344 343 343 342 342 343 343 343 343 343 342 340 339 338 338 338 338 338 339 339 340 340 342 343 342 342 342 341 341 342 343 342 341 341 340 338 337 337 336 335 335 335 335 335 335 335 334 333 332 330 330 332 332 329 325 324 324 322 320 319 318 317 314 313 312 312 312 311 311
354 352 350 351 351 350 350 350 350 349 348 348 347 347 346 346 344 344 344 343 343 343 344 343 344 344 344 342 340 338 338 339 339 339 339 339 341 341 341 342 343 342 342 341 341 342 342 342 341 341 340 339 338 337 335 335 335 336 335 335 334 334 334 332 331 330 329 330 332 331 326 323 323 323 322 320 319 318 316 313 313 312 312 312 312
Wind_Speed
24 28 30 26 24 23 22 20 18 18 18 17 15 15 15 16 15 14 14 14 14 14 14 14 13 12 13 14 14 15 14 14 14 13 12 12 12 13 13 15 16 18 19 20 20 19 19 19 19 18 19 18 18 18 17 17 17 18 18 19 19 19 19 19 19 18 19 19 20 21 21 20 18 18 18 19 20 21 19 19 19 20 21 21 21
27 31 31 27 26 24 23 21 20 20 19 18 16 16 16 17 16 15 15 14 14 14 14 13 13 12 13 14 14 14 13 15 14 13 12 12 12 13 14 15 16 17 19 19 19 18 18 18 18 17 17 16 16 16 16 16 16 16 16 17 17 16 17 17 18 18 19 21 21 22 22 21 19 18 18 18 19 20 19 19 19 20 20 19 20
30 32 31 28 26 24 24 22 21 20 20 20 17 17 16 17 17 16 16 15 14 14 13 13 12 12 13 14 14 13 13 15 15 13 12 12 12 13 14 15 16 17 18 18 18 18 18 17 17 16 15 15 14 14 14 14 14 14 14 15 16 16 15 15 15 16 17 18 19 20 20 20 19 18 18 18 18 18 18 18 18 19 19 18 19
30 32 32 28 26 25 24 23 21 21 21 20 18 17 17 18 18 17 16 16 14 13 13 13 12 12 13 14 13 12 13 15 15 15 12 11 11 12 14 15 16 16 17 18 18 17 16 17 16 15 15 14 13 12 12 12 12 12 13 14 16 15 15 13 13 13 13 13 14 16 17 17 18 17 17 17 17 17 16 17 18 18 19 19 18
31 32 33 29 27 25 24 24 22 22 21 21 19 18 18 18 18 18 17 16 15 13 12 12 12 12 13 14 13 13 13 14 15 15 12 10 10 12 13 15 16 16 16 17 17 15 16 16 15 15 14 13 12 11 10 10 10 11 11 12 14 14 14 13 12 10 9 10 11 13 13 15 16 16 16 16 16 16 16 16 17 17 17 17 17
31 33 33 30 27 26 25 25 23 22 22 21 20 18 18 18 18 18 17 17 15 14 13 12 13 14 14 13 13 13 13 14 15 15 13 10 10 12 13 15 16 15 15 16 16 14 15 15 14 14 13 12 11 10 9 8 8 9 9 10 12 13 12 11 10 9 7 6 8 11 11 13 14 14 14 14 14 15 16 15 16 16 15 15 15
31 34 32 28 26 26 25 25 24 23 23 22 21 19 18 17 17 17 16 16 16 14 13 13 14 15 14 13 13 13 13 14 15 16 14 11 10 12 13 13 14 13 13 15 15 13 13 13 13 12 12 11 10 10 8 7 7 7 8 9 11 12 11 10 9 6 6 5 4 10 12 11 13 13 12 12 13 14 16 15 14 15 16 14 15
29 31 29 26 25 27 26 25 25 24 24 23 21 20 19 17 17 17 15 15 16 15 13 13 15 16 14 13 13 12 13 14 16 16 14 11 11 13 12 12 13 12 12 12 13 13 12 11 11 11 10 10 9 9 8 6 5 6 6 7 8 9 9 8 8 6 8 8 7 11 13 12 13 14 12 12 12 13 14 16 14 14 15 14 14
27 27 27 25 25 28 26 25 25 24 24 23 22 20 19 18 17 16 15 14 15 17 15 13 14 15 14 13 13 12 14 14 15 15 13 12 12 13 12 12 12 11 11 11 12 12 11 11 9 9 9 8 8 7 7 6 5 5 5 6 7 7 7 7 8 8 8 8 11 13 14 13 13 13 12 13 12 12 12 13 13 14 14 14 15
27 25 25 24 27 28 25 25 24 24 24 23 22 20 19 18 17 16 15 14 15 18 17 15 14 14 13 13 13 12 14 14 13 14 14 13 12 12 13 12 11 11 10 9 11 12 11 10 9 8 7 7 7 6 6 5 5 5 5 6 7 7 7 8 9 12 12 9 12 13 13 12 13 13 12 12 12 12 13 13 13 14 14 14 14
26 25 24 24 29 29 25 26 24 24 24 24 22 20 19 17 17 15 15 15 15 18 18 17 15 14 14 14 12 12 14 14 14 15 15 13 13 13 13 13 11 11 10 8 10 11 10 9 8 7 6 6 5 5 5 4 4 5 5 5 6 7 7 9 12 13 12 9 11 12 12 11 13 13 12 13 12 13 13 13 14 14 14 14 14
24 24 24 25 29 29 26 25 24 24 24 24 22 20 19 17 17 15 14 14 15 18 19 19 17 15 16 15 13 13 14 15 15 16 15 14 14 13 13 13 12 11 9 8 10 11 10 9 7 6 5 5 5 4 4 4 4 6 6 6 6 7 8 12 13 11 9 7 9 11 11 11 13 13 12 12 12 13 13 13 14 14 14 14 14
24 23 24 26 30 28 26 25 24 23 24 24 22 21 19 18 17 15 14 13 14 19 21 20 18 16 16 16 13 13 15 16 16 16 15 14 14 14 14 14 13 11 10 9 11 12 10 8 6 5 4 3 3 3 4 4 5 6 6 7 7 7 10 13 12 8 8 9 11 10 9 11 12 12 12 12 12 12 12 13 13 13 13 13 13
24 23 24 26 30 28 26 25 23 23 24 25 23 21 19 17 16 15 14 14 15 19 22 21 19 18 17 16 14 14 16 17 16 16 16 14 13 14 14 14 14 12 10 11 12 12 9 8 6 5 4 3 2 2 3 4 5 6 6 7 6 6 9 10 8 6 8 10 12 9 8 10 11 11 11 12 11 11 12 12 13 13 13 13 13
23 24 25 26 29 28 26 24 22 22 24 25 23 21 19 17 16 15 15 15 16 20 21 20 20 19 18 17 15 14 15 17 16 17 16 14 13 12 13 13 14 12 10 11 13 12 9 7 6 5 4 3 2 2 4 4 5 6 5 6 5 5 7 7 7 7 9 10 11 9 8 9 10 11 11 11 11 11 12 12 12 12 12 12 11
23 24 25 25 26 27 26 24 21 21 22 24 22 20 19 17 16 15 15 15 16 19 19 19 19 19 17 16 15 14 15 17 17 17 16 14 12 11 12 12 13 12 10 11 13 12 9 7 6 4 3 3 2 2 4 5 5 5 5 5 5 5 6 8 7 7 10 11 10 8 8 9 10 11 11 11 11 11 11 11 11 11 12 11 10
24 23 24 24 24 25 24 23 21 20 21 22 21 20 19 18 16 15 15 15 16 19 18 17 17 17 17 16 15 14 15 17 17 17 16 14 12 10 10 10 12 11 9 12 14 12 10 8 6 4 3 3 2 3 4 5 6 5 4 5 6 5 7 8 8 9 11 11 9 7 7 9 10 11 11 11 11 11 10 10 10 11 11 10 10
24 23 24 26 25 24 22 22 22 21 21 21 20 19 19 18 17 16 15 15 16 18 18 18 16 16 16 16 16 14 16 18 17 17 15 14 12 10 10 9 11 11 9 12 13 11 10 8 6 5 3 3 3 3 5 5 6 4 4 6 5 5 7 6 9 12 12 10 8 7 8 10 10 11 10 10 10 10 9 9 10 10 9 9 10
23 24 26 26 26 25 22 22 23 22 21 21 20 19 19 19 17 16 15 15 16 16 17 17 16 14 15 15 15 15 16 18 17 17 15 14 12 10 9 9 11 11 10 12 12 11 10 8 7 5 4 3 3 4 5 6 6 5 4 4 3 3 5 6 10 12 10 9 7 8 10 10 10 10 10 9 8 8 8 8 9 9 9 9 9
22 24 26 25 25 25 23 23 22 22 22 21 19 19 18 18 17 16 15 14 15 16 16 16 15 14 14 14 15 15 16 18 17 16 15 14 12 10 9 9 11 11 11 12 11 11 10 9 7 6 5 3 3 4 5 6 6 5 4 3 1 2 4 8 11 11 9 8 8 10 11 10 10 9 8 8 7 7 7 7 7 7 8 8 8
24 25 26 26 25 25 24 24 23 21 23 22 18 18 18 18 18 16 15 14 14 15 15 15 15 14 14 14 14 15 15 18 17 14 14 13 11 11 10 10 11 12 12 12 12 11 10 9 8 6 5 4 4 4 5 6 6 5 4 3 1 2 4 8 9 10 9 7 9 10 10 9 9 8 7 7 6 6 6 6 6 7 8 7 8
24 25 25 27 26 26 25 25 25 22 23 23 20 19 19 19 18 17 15 15 14 15 15 14 14 14 14 14 14 13 13 15 15 15 14 12 12 11 10 10 11 12 13 13 12 11 10 9 8 7 6 4 4 4 4 5 7 6 4 4 2 2 4 7 7 9 9 8 9 10 9 8 8 7 7 6 5 6 5 5 6 7 7 7 8
24 25 26 28 26 26 26 26 26 24 24 23 22 20 20 19 18 18 16 16 16 15 14 14 14 14 15 15 14 13 13 12 13 14 13 11 12 12 11 10 11 12 13 14 13 12 11 10 9 8 7 6 5 5 4 4 6 7 6 6 3 1 4 9 8 8 8 8 10 9 8 7 7 6 6 6 5 5 4 5 5 5 6 8 10
24 25 27 27 26 27 27 26 26 25 24 23 23 22 22 21 19 19 17 17 17 16 15 15 14 14 15 16 16 14 14 14 13 13 12 14 13 12 13 12 11 12 12 14 14 13 12 11 10 9 8 7 7 7 7 5 6 7 9 7 2 2 6 11 9 8 7 8 9 8 8 7 6 6 5 5 3 3 4 5 5 5 7 9 10
23 24 26 27 26 28 28 27 28 27 25 24 24 24 24 23 21 21 20 19 19 18 17 16 16 15 16 17 18 16 15 16 15 13 13 16 16 13 13 12 12 11 12 14 14 13 13 12 11 10 10 9 8 8 10 9 7 9 11 7 3 4 6 10 10 9 8 8 9 7 7 6 5 5 4 3 3 4 4 4 4 5 8 9 10
21 22 24 26 27 29 29 28 29 27 25 26 24 24 25 23 23 23 22 20 19 20 18 18 18 18 17 16 19 17 16 17 16 14 14 17 16 13 13 12 12 11 13 14 13 13 13 12 11 11 10 10 9 10 13 11 8 11 12 7 7 7 6 10 11 11 10 9 9 7 6 6 6 5 3 2 2 3 3 4 5 6 8 9 10
18 20 22 24 27 29 28 28 29 27 25 26 24 24 25 23 24 23 23 21 20 21 20 19 18 20 18 15 18 18 16 17 16 16 16 17 16 14 14 14 13 13 14 14 13 13 13 12 12 12 10 9 12 15 15 11 6 10 14 10 11 12 11 12 12 11 9 9 9 7 6 7 6 4 2 2 2 3 3 4 6 8 9 9 9
18 19 22 23 27 27 26 28 29 28 25 26 25 25 24 23 24 24 23 22 21 22 21 19 19 22 20 16 17 18 17 16 16 18 17 17 17 17 16 15 15 16 15 14 14 15 14 12 13 16 14 11 15 15 10 7 6 11 15 12 12 14 15 13 12 12 9 8 9 8 7 7 6 5 4 3 3 3 4 6 8 9 9 9 9
21 22 23 23 27 26 25 28 29 28 26 25 25 24 24 23 24 24 23 23 22 22 21 20 21 22 21 18 17 18 18 16 15 18 18 19 19 18 17 16 16 17 18 16 14 15 16 13 13 17 16 12 13 10 7 5 6 11 12 11 9 12 15 13 13 13 10 10 9 9 8 7 6 5 5 5 4 5 6 8 9 9 9 9 9
21 24 24 24 25 26 25 27 29 28 26 25 23 24 23 22 24 23 22 22 21 21 20 19 20 21 21 20 19 18 18 17 16 17 19 19 18 18 18 17 16 16 18 17 14 15 16 14 14 15 13 11 11 9 7 5 7 10 9 11 10 10 13 14 15 13 11 10 8 7 5 5 6 4 5 6 6 7 8 9 10 9 9 9 10
20 24 25 25 25 26 25 27 29 27 27 25 22 23 24 21 23 23 21 22 20 19 19 18 19 20 20 19 19 19 19 18 17 18 19 18 17 17 16 16 16 15 15 14 13 14 14 13 13 12 10 11 11 8 9 6 8 9 10 13 11 10 12 14 15 14 12 9 6 5 5 6 6 6 6 6 8 9 9 10 9 10 9 9 10
17 22 23 25 27 27 25 27 30 28 27 26 22 22 24 21 21 22 21 21 20 20 19 17 19 20 20 20 20 20 20 18 17 18 18 17 17 17 16 14 14 15 13 12 13 13 13 12 12 10 11 12 7 7 11 7 8 9 11 13 13 13 11 12 14 15 13 9 5 4 5 7 7 7 6 7 9 9 9 10 9 9 9 9 9
18 20 21 22 26 26 25 27 31 31 29 26 22 20 22 22 22 21 21 21 19 20 20 15 18 19 18 21 22 21 21 18 17 19 17 17 17 17 17 14 14 15 13 12 13 13 12 11 11 9 10 9 2 8 10 7 8 9 10 12 14 15 12 12 13 13 13 11 8 6 6 7 8 8 7 8 10 9 10 9 9 9 9 9 8
20 19 20 21 25 24 23 27 31 33 30 27 23 20 21 22 22 20 20 21 19 20 21 16 16 18 17 21 23 21 21 19 18 19 18 17 17 16 17 15 14 14 13 13 12 12 13 9 9 8 8 7 4 8 8 8 10 10 11 12 15 16 13 13 12 11 12 13 12 10 8 6 9 9 7 9 10 10 10 9 9 8 8 8 7
21 21 23 23 26 25 21 26 32 32 30 28 25 21 20 21 21 20 20 21 20 20 21 18 17 18 18 21 22 22 22 19 18 20 19 17 17 16 16 15 14 14 13 14 12 12 13 10 7 8 10 8 5 6 6 8 9 10 11 12 15 17 14 11 12 10 11 15 14 12 9 8 11 9 6 7 9 10 10 10 9 8 8 7 7
25 23 26 25 27 26 22 26 33 32 30 28 26 23 21 22 21 20 21 22 20 20 20 19 18 19 19 21 22 23 23 19 18 21 20 17 17 16 16 15 14 15 14 13 13 12 12 11 8 11 14 9 6 7 6 8 9 10 11 12 13 14 12 11 13 11 10 13 14 12 10 12 14 11 6 6 7 10 11 10 9 8 8 7 6
28 26 28 28 28 26 23 27 32 32 31 28 27 26 23 22 22 21 21 23 20 20 21 20 19 19 19 21 22 23 23 20 19 21 20 17 16 16 15 15 14 15 14 13 14 12 11 11 7 10 16 9 7 8 8 9 9 11 11 12 13 12 10 10 11 9 8 11 11 9 9 11 12 9 6 6 7 9 10 10 9 8 9 8 7
28 27 30 30 29 27 24 26 31 31 30 28 28 26 22 22 23 21 22 24 21 20 21 20 20 20 20 21 22 23 23 21 20 21 21 17 15 16 15 16 16 15 16 14 14 13 12 9 8 9 12 8 7 9 10 11 11 12 12 11 12 10 9 10 9 8 6 8 8 6 8 10 8 7 10 10 10 8 8 10 11 10 9 8 9
27 27 29 30 28 28 26 25 29 31 29 28 28 25 21 23 23 20 22 23 22 21 22 21 21 21 21 22 22 24 24 21 21 21 20 18 15 16 16 17 17 16 15 15 14 14 12 8 9 10 10 6 8 9 12 12 12 12 11 10 9 8 10 10 8 8 8 9 8 7 9 10 8 10 13 13 12 10 8 8 10 11 8 8 8
29 29 30 30 28 29 29 26 27 29 29 27 27 25 22 24 24 21 22 23 22 22 21 21 22 21 21 22 23 24 25 22 22 21 20 19 16 16 16 17 18 16 15 15 13 13 13 9 8 9 12 10 10 12 13 13 13 12 9 9 8 8 9 9 9 9 9 10 10 10 9 8 10 12 12 12 12 11 9 6 7 10 8 6 6
30 31 31 31 31 32 31 30 28 29 30 28 27 27 25 25 25 23 23 23 23 23 22 21 23 23 21 23 25 25 25 24 22 21 19 18 17 16 16 17 17 16 15 16 14 13 13 11 9 10 13 12 14 15 15 15 14 11 8 7 7 8 7 7 11 11 9 11 11 12 10 10 11 13 12 12 11 10 9 7 5 11 12 7 4
29 32 33 33 34 34 33 33 33 30 31 31 29 29 28 26 25 24 23 24 24 23 23 22 23 24 22 23 26 26 25 24 23 22 20 18 18 17 18 18 16 15 15 15 14 14 13 11 12 14 13 12 15 16 16 16 13 11 10 6 3 6 8 9 12 12 10 12 13 12 12 12 12 13 13 13 12 10 10 8 7 13 16 10 5
30 33 33 33 34 33 32 32 34 32 31 31 30 30 28 27 26 24 23 24 24 24 23 21 22 24 23 23 26 26 25 24 24 23 21 19 19 18 18 19 17 16 16 15 14 15 14 13 13 16 15 14 14 16 19 17 13 13 11 5 3 4 7 11 15 15 13 11 13 13 13 13 12 13 14 13 13 11 12 11 8 12 14 9 6
30 31 30 31 32 32 33 33 34 33 32 32 30 29 28 26 25 24 24 23 22 23 22 21 22 24 25 24 24 26 25 24 24 23 21 20 20 19 18 19 18 17 17 16 15 16 16 15 14 15 17 16 14 16 21 19 16 16 10 4 6 5 4 9 15 18 17 13 13 15 14 13 12 15 16 12 13 12 12 13 10 12 13 9 6
29 31 32 32 32 34 36 36 35 34 32 32 30 28 27 27 25 24 24 22 20 23 24 23 23 24 25 26 25 25 26 24 24 24 22 20 20 20 19 18 19 18 17 17 15 16 16 15 15 16 18 19 16 14 18 21 19 18 14 5 5 4 3 8 12 13 16 16 15 15 14 14 12 15 15 11 12 13 11 13 13 13 14 12 10
29 32 34 35 34 35 38 37 35 34 32 31 31 29 29 29 27 25 26 24 21 24 26 24 25 25 25 27 26 25 26 25 24 24 23 21 21 21 20 19 19 19 18 17 16 16 16 15 15 16 17 18 17 14 17 22 20 19 18 11 6 4 1 9 9 5 11 15 15 16 15 14 12 13 14 11 12 14 12 13 14 15 14 12 11
29 33 34 35 35 35 37 37 35 34 32 32 32 30 30 30 28 26 26 26 23 23 26 24 25 27 25 26 27 25 26 26 25 24 23 22 21 21 21 19 18 19 19 18 16 16 17 17 16 17 17 17 18 19 20 22 20 18 19 17 12 7 3 6 4 2 5 9 13 16 16 15 14 14 14 13 13 14 15 13 14 15 13 10 10
31 33 33 34 35 35 37 37 35 34 32 33 35 33 31 30 29 27 25 26 25 22 26 26 24 28 27 26 28 27 27 27 26 25 24 23 22 21 21 20 19 18 19 18 17 17 17 17 17 17 17 17 18 20 21 22 20 18 18 17 14 10 7 7 6 2 3 4 7 12 15 16 16 16 15 14 14 14 16 15 13 13 13 11 10
33 34 35 34 34 35 36 36 35 35 33 34 36 35 33 30 28 28 26 26 26 23 27 28 24 27 28 27 28 27 27 28 26 26 24 24 23 22 21 22 21 19 19 19 17 17 18 17 18 18 17 17 17 18 19 20 20 18 16 16 13 11 10 9 10 8 5 4 4 5 11 14 14 18 18 16 14 14 16 18 15 12 13 14 12
34 36 36 34 34 34 34 35 35 35 34 34 36 37 34 31 29 30 28 27 28 24 26 28 26 26 28 28 28 27 27 28 27 26 25 24 24 23 21 21 23 21 19 19 18 17 18 18 18 19 18 17 17 17 18 18 17 16 15 14 13 11 10 9 11 11 8 7 5 4 11 14 11 16 21 19 17 14 14 18 18 14 13 15 14
30 33 34 33 33 33 33 33 33 35 36 36 38 39 37 33 32 33 30 29 30 27 26 28 28 27 27 28 29 28 27 28 29 28 27 26 24 24 22 21 23 22 20 19 19 18 18 19 18 18 19 19 17 18 18 17 14 14 15 14 14 14 13 11 10 11 10 7 5 4 10 17 15 16 20 22 21 16 14 16 19 17 14 14 15
Wind_Direction
144 156 157 164 162 160 160 159 156 150 146 143 148 149 148 148 148 149 148 146 143 141 138 135 130 128 123 119 116 114 110 107 106 105 106 106 108 108 110 114 115 117 120 119 115 114 111 107 103 98 95 91 88 86 84 84 83 84 87 86 84 82 81 82 83 84 84 84 86 87 87 88 87 85 84 83 87 89 82 76 74 71 70 68 67
144 153 157 162 161 161 160 161 156 152 148 143 148 149 149 151 151 151 151 150 148 146 143 141 135 131 126 124 123 121 116 116 114 106 106 108 109 110 114 117 118 121 122 120 118 117 113 108 104 100 97 94 90 87 86 85 84 85 86 85 83 84 85 84 84 85 83 81 83 85 86 87 87 87 84 81 81 82 80 76 74 73 72 69 67
141 151 155 160 160 161 160 161 156 152 148 145 148 150 151 151 153 152 153 153 152 151 148 144 140 136 129 127 128 126 122 125 121 112 109 110 112 113 118 120 122 125 124 123 121 119 114 109 105 102 99 96 93 89 87 85 85 85 85 85 84 86 87 85 83 83 83 80 77 77 80 82 81 79 77 74 73 72 73 74 73 72 71 69 67
141 148 155 159 159 162 162 162 157 152 149 147 147 151 152 150 152 151 152 153 152 152 147 145 143 139 132 130 129 125 124 132 128 119 116 115 116 116 121 124 124 126 125 126 124 121 115 110 106 102 101 97 95 92 88 86 84 84 84 86 87 88 86 84 81 80 84 81 75 75 73 78 80 75 73 72 72 72 71 71 68 65 62 63 66
139 148 156 158 159 163 163 163 158 153 151 149 147 150 152 149 149 151 151 151 152 150 149 147 145 141 134 129 126 123 124 133 131 124 126 126 122 118 123 126 126 127 128 130 127 123 115 111 108 104 101 97 93 91 89 88 85 83 83 85 87 89 87 81 78 74 80 82 84 90 79 75 82 77 74 73 71 73 72 70 66 64 59 55 60
143 152 155 156 159 163 164 164 160 154 153 151 149 149 150 147 148 152 151 151 153 151 154 152 146 142 135 131 127 126 126 135 136 131 135 132 125 121 124 127 127 128 131 134 131 124 118 115 111 107 102 96 90 85 83 88 89 85 81 81 84 90 91 84 79 71 71 84 93 101 90 80 84 78 75 73 70 68 68 73 73 69 64 54 54
145 151 152 153 157 162 165 164 161 156 154 154 152 150 149 146 146 150 148 149 152 149 153 151 147 143 137 136 134 134 133 137 140 140 142 134 125 125 127 130 129 130 134 138 135 128 123 119 114 110 103 97 87 78 74 83 94 91 83 81 85 88 89 85 79 72 62 51 85 104 96 88 88 82 76 75 73 70 63 65 72 72 68 59 55
141 145 147 150 158 163 166 165 162 157 156 156 153 151 150 148 148 151 151 152 152 149 152 150 147 144 141 141 141 142 139 139 144 148 144 134 131 132 133 135 133 130 134 143 141 134 129 123 117 111 105 97 86 74 66 75 97 100 88 81 84 84 81 69 58 66 64 55 79 104 100 91 88 84 77 75 74 74 67 60 64 68 68 63 60
138 143 145 151 160 163 165 165 161 158 157 156 154 152 152 152 154 157 159 157 155 154 154 154 150 147 146 145 147 146 144 142 145 151 144 136 139 138 137 137 137 136 138 148 150 143 137 129 120 112 105 96 85 73 60 65 96 107 96 83 80 76 65 52 50 51 34 44 78 93 98 93 86 84 79 76 74 76 77 72 68 66 65 64 64
139 142 144 153 161 163 165 164 161 159 159 156 152 152 153 155 156 160 163 161 160 162 159 156 153 152 150 149 152 149 149 145 142 149 144 141 145 143 141 142 144 144 142 149 156 151 143 134 126 118 108 98 86 74 59 58 91 112 102 84 79 71 54 46 44 31 12 33 78 86 91 93 88 85 83 79 77 78 78 77 72 69 69 66 67
140 142 146 156 161 162 165 164 163 161 160 156 152 151 151 153 156 158 161 162 163 167 165 156 155 157 151 152 156 151 152 147 144 147 146 148 149 150 148 148 151 150 146 151 161 158 152 141 131 124 113 103 91 77 67 63 92 113 98 80 78 70 50 37 27 17 15 42 73 81 86 86 87 87 85 82 79 78 77 76 73 72 72 68 67
139 140 148 159 160 161 165 164 164 162 159 156 155 152 151 154 157 158 158 160 162 167 167 156 154 157 150 156 160 153 154 150 148 149 150 153 154 159 156 151 154 154 156 165 171 165 158 146 135 129 115 103 93 83 75 78 101 108 94 78 75 67 46 34 21 13 27 47 62 74 87 84 84 87 85 84 81 80 79 78 76 73 71 68 63
135 140 150 159 159 160 164 164 165 162 160 159 158 155 155 157 156 156 155 153 155 161 163 154 151 153 152 159 162 156 157 151 151 152 151 156 160 167 162 157 158 156 164 175 174 166 160 149 144 135 117 105 89 82 82 90 110 109 93 75 70 65 49 34 19 23 50 66 70 68 82 84 83 88 86 85 84 82 81 80 78 75 70 64 59
135 144 152 156 158 159 162 165 166 163 163 162 160 159 159 158 155 153 150 146 148 155 157 153 151 154 156 160 159 155 155 152 154 154 154 159 163 173 171 166 163 161 173 179 172 164 162 156 153 144 126 117 91 84 90 99 116 113 96 81 72 57 48 35 21 44 64 74 80 75 82 84 86 90 87 87 86 85 84 81 78 74 69 61 56
136 145 150 152 156 158 160 165 166 165 167 164 162 162 159 156 155 151 148 145 146 151 152 154 155 155 158 163 165 160 153 152 158 156 158 164 165 174 175 176 173 169 183 180 168 163 164 164 162 155 138 127 104 96 103 111 124 119 101 86 74 52 36 29 25 51 73 81 86 84 84 87 92 92 90 89 87 87 83 79 75 70 65 58 51
137 142 145 150 154 156 159 163 167 167 167 167 165 162 158 156 153 149 148 144 145 149 148 154 158 157 160 168 173 171 159 155 161 159 163 170 168 174 175 181 183 177 188 179 167 166 167 170 172 165 150 137 118 112 119 126 134 124 105 86 67 49 29 32 38 61 81 85 86 81 79 90 98 95 93 92 89 86 80 76 73 68 62 54 42
140 143 144 149 152 155 158 161 166 167 167 169 167 162 159 157 153 150 148 144 146 149 148 150 156 159 165 171 175 174 165 160 163 165 171 178 172 178 182 185 187 186 189 176 168 168 171 176 179 176 162 141 124 127 133 138 143 133 110 84 58 41 39 51 64 77 86 87 95 98 93 98 101 99 95 92 91 86 80 75 70 65 58 44 31
141 143 146 150 153 154 156 161 166 167 168 168 167 163 159 158 155 151 148 145 147 151 152 152 155 161 166 171 174 175 169 164 168 174 178 184 183 188 193 195 192 190 186 176 172 173 176 181 183 183 174 152 137 137 143 149 150 145 119 87 60 43 50 74 83 82 88 91 104 111 104 105 104 102 98 93 90 86 81 75 68 64 49 32 25
141 143 146 151 154 155 156 162 167 167 168 168 165 163 160 159 158 155 151 146 146 152 157 158 158 159 164 167 171 175 175 173 176 181 183 186 192 197 200 204 196 190 184 178 177 180 182 184 186 186 179 165 144 146 154 158 161 156 128 98 88 57 56 99 95 86 93 99 105 104 105 109 106 102 100 96 91 87 85 78 73 65 39 23 22
143 145 148 153 155 155 157 162 167 168 168 169 164 161 162 160 159 159 156 150 147 150 158 161 159 157 161 165 169 173 177 183 184 182 185 190 197 203 208 210 201 193 184 181 184 186 187 187 189 187 185 177 156 157 164 166 172 166 140 129 149 51 72 109 101 94 99 102 102 103 110 111 106 104 101 99 93 88 85 80 75 53 26 19 23
146 149 151 155 156 157 160 162 166 169 170 170 165 162 164 164 161 161 162 159 151 150 157 163 163 161 162 165 170 172 176 184 187 186 190 196 198 203 213 215 208 199 188 186 189 190 191 192 190 189 191 185 172 167 173 176 179 172 155 169 181 41 100 116 105 106 105 103 105 108 114 111 107 106 101 101 93 89 83 70 55 29 18 23 33
151 154 156 158 159 161 163 164 167 169 170 168 167 167 166 167 165 163 166 166 158 154 157 164 167 165 168 172 171 172 177 180 184 189 193 196 197 201 211 214 214 209 196 192 193 194 194 196 194 193 193 193 191 177 179 183 183 176 163 187 196 27 114 122 106 108 108 112 114 113 115 110 110 107 103 105 96 89 75 51 30 17 23 39 50
157 158 159 161 163 164 164 165 169 170 169 166 168 171 168 168 169 166 168 171 168 161 158 163 167 168 173 177 176 175 181 185 185 190 195 198 201 207 212 215 219 218 209 198 197 198 197 200 198 197 197 201 198 175 185 191 184 174 167 192 216 308 119 111 101 102 109 117 117 115 115 112 112 112 113 112 100 83 51 30 23 24 43 56 62
162 160 160 164 165 164 165 166 169 171 169 165 166 171 169 168 171 169 170 175 173 167 164 166 170 173 176 178 181 182 188 196 197 197 197 196 204 212 212 217 219 222 221 208 204 202 202 204 201 203 200 206 202 181 194 198 183 170 172 192 203 184 137 111 108 111 118 123 119 117 115 114 114 117 122 116 92 56 29 23 31 48 66 68 69
162 160 161 165 167 164 165 167 168 171 171 167 166 171 170 169 174 173 173 178 174 171 172 171 174 178 179 181 183 186 196 202 201 202 202 197 202 208 209 219 221 222 225 216 209 208 209 208 208 213 205 212 212 196 205 200 190 171 170 190 161 172 162 129 133 138 138 132 123 123 120 116 116 124 127 118 81 38 22 33 58 74 79 79 77
162 160 164 167 168 166 165 166 167 170 173 171 169 171 170 171 176 175 175 179 175 172 176 175 179 183 179 181 184 186 198 201 195 197 203 199 200 205 207 216 218 220 223 217 209 211 217 212 212 223 220 220 221 222 215 206 206 175 164 185 164 162 170 151 153 152 146 135 128 128 124 120 121 129 123 109 69 37 41 68 87 88 86 87 85
168 164 166 168 167 167 167 165 168 171 174 175 171 170 171 174 177 176 176 178 176 175 179 177 179 185 180 178 185 189 198 202 193 193 202 202 203 208 208 211 213 215 222 218 204 207 222 216 212 223 237 233 225 232 218 202 206 154 138 150 154 154 163 159 151 143 141 136 132 130 124 124 127 126 98 98 74 59 83 91 97 95 92 92 89
170 168 168 169 166 168 170 166 170 173 174 176 171 171 174 177 179 178 178 178 178 177 180 180 180 185 183 177 183 191 199 204 194 193 202 203 206 210 209 213 214 212 220 220 203 204 217 219 213 217 230 235 234 237 212 192 188 140 129 139 147 147 156 163 147 133 136 133 128 125 124 127 130 124 115 121 106 100 108 104 105 103 103 101 93
171 170 170 171 168 170 172 166 169 172 175 178 172 173 177 177 178 179 181 180 179 179 182 186 182 184 186 181 185 191 196 202 197 194 203 206 208 211 210 212 214 211 216 217 206 206 211 217 223 222 224 229 243 238 187 191 176 143 140 149 150 144 147 156 146 132 133 132 130 132 132 139 144 136 129 131 126 123 120 117 118 115 112 107 98
179 168 171 173 171 172 175 169 167 172 176 180 176 175 178 176 175 179 182 180 179 181 183 186 181 181 187 185 189 194 194 202 201 197 206 211 210 212 210 209 212 213 214 213 208 212 211 216 227 229 225 223 245 232 180 183 160 144 145 148 154 155 145 146 144 138 140 141 143 146 151 171 172 162 145 141 137 134 131 130 127 121 116 108 102
190 170 173 172 173 174 179 172 167 173 176 180 181 175 178 176 174 177 180 179 181 183 182 185 183 184 189 187 191 198 199 203 202 198 207 211 209 211 211 209 209 209 212 208 206 215 214 216 223 225 222 227 243 214 165 152 144 141 141 142 151 159 150 148 147 145 150 151 147 149 168 187 185 175 160 151 146 141 137 136 131 124 118 110 105
205 178 177 171 174 177 181 174 167 173 175 180 184 176 178 178 174 177 179 180 181 182 182 185 185 186 193 193 194 200 201 205 201 197 205 207 206 210 210 211 207 205 213 205 204 216 211 211 220 219 221 236 245 168 158 154 144 143 144 145 151 154 153 157 153 151 158 164 160 162 168 175 181 174 162 154 149 147 144 140 135 128 118 112 105
225 187 177 174 176 180 182 174 169 173 175 182 186 179 178 178 177 178 177 178 179 181 182 186 185 183 194 196 196 200 202 206 202 197 201 203 203 206 206 209 207 206 211 203 207 215 204 208 221 219 222 234 191 137 158 151 147 153 151 153 155 153 158 165 162 161 169 179 192 189 166 168 175 167 158 157 157 154 149 144 137 130 120 115 108
223 187 176 176 176 184 183 173 171 173 176 182 187 183 178 177 178 179 177 177 181 182 182 191 190 185 196 197 195 200 202 203 202 199 199 201 202 203 202 205 205 204 205 203 207 206 199 209 216 212 223 219 130 132 155 144 149 162 160 160 159 157 162 170 175 174 176 189 202 190 166 167 168 161 156 158 164 161 154 150 142 135 129 123 115
214 187 178 179 177 185 184 171 171 174 175 179 185 184 179 180 181 182 180 178 183 183 184 196 197 193 199 197 194 198 199 198 200 199 197 200 202 200 200 202 202 200 200 202 202 196 198 206 200 202 219 212 173 164 165 157 161 167 171 167 160 161 165 177 181 176 184 192 191 182 177 179 170 165 161 157 165 167 161 157 153 148 141 131 126
202 189 178 177 178 184 183 172 172 175 176 178 182 183 183 184 183 188 184 179 182 183 189 198 197 196 197 194 194 197 197 194 197 197 195 199 199 197 199 199 201 198 196 201 202 195 198 200 184 198 216 215 204 200 178 172 170 165 170 166 162 166 168 179 183 179 185 177 166 166 173 173 169 166 161 158 166 170 169 172 173 163 149 141 142
191 187 177 174 176 182 181 175 176 177 178 179 181 183 188 185 184 191 185 179 182 185 194 200 194 195 195 192 194 195 194 192 195 195 193 197 197 196 197 197 201 197 193 201 204 200 201 199 164 194 220 222 213 207 179 177 177 166 166 164 165 166 167 175 183 187 178 158 152 159 169 168 166 165 174 186 186 181 182 187 185 171 164 159 152
186 184 177 173 173 178 179 175 177 178 178 179 180 184 189 186 188 193 186 183 186 190 198 199 195 197 197 192 191 193 191 190 194 193 193 197 196 197 199 199 200 198 198 202 205 206 210 197 136 171 217 221 213 203 176 176 173 167 168 163 164 167 178 183 185 195 183 162 161 166 184 186 180 180 187 194 200 202 201 197 193 188 189 182 166
181 180 176 173 170 175 177 174 174 177 178 178 181 185 187 188 193 193 185 184 188 196 201 197 194 199 197 190 189 190 189 189 192 192 196 198 198 202 204 201 199 199 203 207 208 209 214 193 145 176 210 210 215 194 168 172 165 164 166 156 161 175 185 189 190 195 186 174 172 175 194 197 191 188 187 193 206 215 213 204 203 201 199 197 192
177 176 174 172 169 171 174 176 176 176 177 176 181 186 186 192 198 195 187 183 187 199 206 197 192 198 195 188 188 189 188 189 190 193 199 201 201 208 207 201 200 200 202 207 208 208 215 199 155 194 206 185 193 182 162 164 159 157 160 155 166 182 184 194 205 203 187 178 179 186 196 195 187 186 189 196 203 213 217 213 203 196 194 191 195
173 173 172 171 171 171 171 176 178 177 178 179 182 185 188 194 198 196 189 184 188 200 210 201 190 194 196 189 187 189 189 190 192 194 201 203 203 209 207 201 203 205 203 205 204 205 215 201 162 190 205 176 169 178 167 155 151 146 148 160 175 184 192 204 215 221 209 192 192 198 196 192 188 187 192 196 197 205 211 219 208 195 200 203 197
171 174 175 174 172 172 172 175 177 179 182 183 185 187 190 194 196 196 188 183 190 201 210 205 190 190 197 192 188 189 190 192 194 195 200 204 204 208 209 206 205 206 207 205 201 204 207 195 172 175 194 184 167 179 176 155 152 152 148 152 168 199 217 225 228 235 224 194 188 198 197 192 192 191 193 194 195 200 204 218 226 206 208 220 232
175 178 179 174 170 172 173 174 177 180 183 186 188 189 191 194 195 196 188 182 192 201 206 206 192 188 195 195 190 189 190 193 195 195 200 204 205 207 212 212 206 202 207 204 200 208 202 190 181 166 174 191 181 181 180 168 167 163 154 162 173 194 222 228 231 231 226 204 188 194 197 196 198 194 194 196 197 204 208 211 215 206 210 224 241
176 179 178 173 170 173 175 175 178 181 183 188 191 190 191 194 196 197 192 187 192 199 204 204 194 188 192 196 192 190 191 193 194 196 199 204 207 206 208 211 207 202 207 205 200 208 207 197 193 174 165 180 187 182 180 180 180 168 165 199 180 180 222 214 216 218 220 218 205 201 198 199 205 197 193 198 202 206 211 208 202 200 205 208 216
177 179 177 175 174 177 178 177 179 181 184 189 191 190 190 194 198 196 193 194 193 195 202 203 193 188 190 195 195 193 193 193 194 196 199 204 208 207 206 208 208 206 205 207 203 205 211 208 203 189 171 171 183 192 188 189 195 187 184 187 166 196 249 178 185 210 215 213 212 209 202 201 206 199 192 196 207 207 207 206 200 202 210 211 209
181 181 179 179 179 180 180 178 177 179 183 188 191 189 189 195 200 192 186 191 194 194 200 199 190 188 190 193 196 196 195 195 196 198 199 203 208 207 205 206 209 209 206 206 207 206 209 209 203 198 186 175 179 200 205 199 205 206 201 206 217 242 199 155 162 192 204 208 214 210 206 205 207 203 195 196 211 211 203 202 201 206 217 220 217
182 182 181 182 183 182 180 178 177 178 181 187 191 192 192 196 201 195 187 190 195 195 198 198 191 189 192 193 195 197 196 197 198 199 200 203 206 207 205 205 207 210 208 205 208 209 206 203 200 197 194 185 178 189 201 200 206 214 214 222 235 241 208 176 184 140 172 209 221 210 204 205 207 208 206 205 217 214 201 201 207 210 219 226 220
182 181 183 184 185 183 181 179 178 178 181 186 190 193 194 198 200 197 193 194 198 196 195 199 194 188 192 193 193 197 197 198 200 201 202 203 205 208 207 207 207 209 210 208 209 212 206 201 200 197 195 194 186 184 189 193 200 208 214 222 229 230 225 228 250 241 163 196 217 209 204 205 208 212 216 214 220 221 203 199 209 210 215 225 223
181 183 184 185 185 184 182 179 177 178 181 185 190 194 196 198 197 195 195 196 200 199 192 197 196 187 190 191 191 196 197 199 202 201 203 204 205 206 207 209 208 208 210 210 210 212 209 202 201 199 196 196 196 191 187 192 198 200 204 212 219 223 224 235 242 233 224 214 200 195 192 197 209 215 220 218 218 226 213 204 208 210 214 219 216
181 184 185 185 184 184 185 181 177 179 184 187 191 195 197 196 194 195 197 195 199 199 190 193 196 189 190 191 190 195 197 199 201 202 203 205 205 205 205 209 209 208 210 210 209 211 212 208 203 203 199 195 198 198 196 198 201 203 203 203 206 212 218 231 230 220 226 233 226 207 185 185 203 213 218 219 216 222 221 210 206 208 218 217 207
180 182 183 184 183 182 186 185 182 182 187 190 192 195 197 194 193 196 199 197 196 197 191 189 193 192 191 190 190 193 195 197 200 201 202 204 205 204 204 208 209 208 208 209 210 211 213 210 204 205 202 197 199 201 203 205 205 207 209 207 205 210 214 220 225 218 219 231 237 223 192 190 201 210 212 215 215 218 221 212 207 209 221 221 205